Location: Wildlife_Club
(35.6000°N, 81.4330°W)
Time: 07:20:34
(UTC-04:00)

Tiangong 2 - Visible Passes

Search period start: 23 May 2019 00:00
Search period end: 02 June 2019 00:00
Orbit: 379 x 387 km, 42.8° (Epoch: 23 May)

Date Brightness Start Highest point End Pass type
(mag) Time Alt. Az. Time Alt. Az. Time Alt. Az.
23 May 3.3 21:44:09 10° WNW 21:46:48 24° N 21:49:27 10° NE visible
23 May 3.9 23:21:32 10° NW 23:22:55 18° NNW 23:22:55 18° NNW visible
24 May 3.4 22:21:24 10° NW 22:23:52 21° N 22:25:37 14° NE visible
25 May 3.4 21:21:06 10° WNW 21:23:37 21° N 21:26:07 10° NE visible
25 May 3.1 22:58:08 10° NW 23:00:24 26° N 23:00:24 26° N visible
26 May 3.2 21:58:06 10° NW 22:00:40 23° N 22:02:57 12° ENE visible
26 May 4.2 23:34:38 10° WNW 23:35:08 14° WNW 23:35:08 14° WNW visible
27 May 3.4 20:57:56 10° NW 21:00:25 21° N 21:02:53 10° NE visible
27 May 2.1 22:34:39 10° NW 22:37:37 38° NNE 22:37:40 38° NNE visible
28 May 2.8 21:34:40 10° NW 21:37:26 27° NNE 21:40:11 10° ENE visible
28 May 3.5 23:11:12 10° WNW 23:12:22 20° WNW 23:12:22 20° WNW visible
29 May 1.3 22:11:09 10° WNW 22:14:15 62° NNE 22:14:54 47° E visible
30 May 2.2 21:11:10 10° NW 21:14:07 38° NNE 21:17:04 10° E visible
30 May 2.9 22:47:55 10° WNW 22:49:37 25° WSW 22:49:37 25° WSW visible
31 May 1.0 21:47:41 10° WNW 21:50:49 72° SSW 21:52:12 29° SE visible
01 Jun 3.1 22:24:57 10° W 22:27:00 18° SW 22:27:00 18° SW visible
